When you browse on this site, cookies collect data to enhance your experience and personalize the content and advertising you see.
Visit our Privacy Policy to learn more. By continuing to use the site, you agree to this use of cookies and data.
  • In United Kingdom
  • List of Countries
  • For 7 days
  • Water Temperature
  • Satellite Maps
  • Weather Map
  • Weather Widgets
  • user-avatar
    Login

    Hourly Weather Lievin

    Today, 24 April, Wednesday

    Time Temperature Precipitation Wind Pressure Humidity
    00:00 +13°C° 0 mm 3 mps 739 mmHg 84%
    01:00 +12°C° 0 mm 3 mps 739 mmHg 85%
    02:00 +12°C° 0 mm 3 mps 739 mmHg 86%
    03:00 +12°C° 0 mm 3 mps 739 mmHg 87%
    04:00 +12°C° 0 mm 4 mps 739 mmHg 87%
    05:00 +12°C° 0 mm 5 mps 739 mmHg 86%
    06:00 +13°C° 0 mm 5 mps 739 mmHg 86%
    07:00 +14°C° 0 mm 6 mps 740 mmHg 79%
    08:00 +16°C° 0 mm 7 mps 740 mmHg 73%
    09:00 +17°C° 0 mm 8 mps 740 mmHg 66%
    10:00 +17°C° 0 mm 7 mps 740 mmHg 67%
    11:00 +17°C° 0 mm 7 mps 740 mmHg 67%
    12:00 +17°C° 0 mm 7 mps 741 mmHg 68%
    13:00 +16°C° 0.5 mm 6 mps 741 mmHg 71%
    14:00 +16°C° 0.5 mm 6 mps 741 mmHg 73%
    15:00 +15°C° 0.5 mm 6 mps 741 mmHg 76%
    16:00 +14°C° 0.1 mm 5 mps 742 mmHg 77%
    17:00 +13°C° 0.1 mm 5 mps 742 mmHg 77%
    18:00 +12°C° 0.1 mm 5 mps 742 mmHg 78%
    19:00 +12°C° 0.2 mm 5 mps 743 mmHg 80%
    20:00 +10°C° 0.2 mm 5 mps 743 mmHg 82%
    21:00 +11°C° 0.2 mm 4 mps 744 mmHg 83%
    22:00 +10°C° 0 mm 5 mps 744 mmHg 83%
    23:00 +10°C° 0 mm 5 mps 743 mmHg 82%

    Tomorrow, 25 April, Thursday

    Time Temperature Precipitation Wind Pressure Humidity
    00:00 +10°C° 0 mm 6 mps 743 mmHg 82%
    01:00 +10°C° 0 mm 6 mps 743 mmHg 79%
    02:00 +10°C° 0 mm 6 mps 743 mmHg 77%
    03:00 +10°C° 0 mm 6 mps 743 mmHg 74%
    04:00 +10°C° 0.2 mm 7 mps 743 mmHg 77%
    05:00 +9°C° 0.2 mm 8 mps 743 mmHg 79%
    06:00 +9°C° 0.2 mm 8 mps 743 mmHg 82%
    07:00 +10°C° 0.1 mm 8 mps 743 mmHg 82%
    08:00 +10°C° 0.1 mm 7 mps 744 mmHg 83%
    09:00 +10°C° 0.1 mm 6 mps 744 mmHg 83%
    10:00 +11°C° 0 mm 6 mps 745 mmHg 78%
    11:00 +13°C° 0 mm 6 mps 745 mmHg 73%
    12:00 +14°C° 0 mm 6 mps 746 mmHg 68%
    13:00 +14°C° 0.3 mm 6 mps 746 mmHg 68%
    14:00 +14°C° 0.3 mm 6 mps 747 mmHg 68%
    15:00 +14°C° 0.3 mm 7 mps 747 mmHg 68%
    16:00 +13°C° 0.1 mm 6 mps 747 mmHg 70%
    17:00 +12°C° 0.1 mm 5 mps 747 mmHg 73%
    18:00 +12°C° 0.1 mm 4 mps 748 mmHg 75%
    19:00 +11°C° 0 mm 4 mps 748 mmHg 76%
    20:00 +9°C° 0 mm 5 mps 749 mmHg 77%
    21:00 +8°C° 0 mm 5 mps 749 mmHg 78%
    22:00 +8°C° 0 mm 5 mps 749 mmHg 80%
    23:00 +7°C° 0 mm 5 mps 750 mmHg 82%

    Day after tomorrow, 26 April, Friday

    Time Temperature Precipitation Wind Pressure Humidity
    00:00 +7°C° 0 mm 4 mps 750 mmHg 84%
    01:00 +6°C° 0 mm 4 mps 750 mmHg 85%
    02:00 +6°C° 0 mm 4 mps 750 mmHg 87%
    03:00 +5°C° 0 mm 4 mps 751 mmHg 88%
    04:00 +6°C° 0 mm 5 mps 751 mmHg 86%
    05:00 +6°C° 0 mm 5 mps 751 mmHg 85%
    06:00 +7°C° 0 mm 6 mps 752 mmHg 83%
    07:00 +8°C° 0 mm 6 mps 752 mmHg 78%
    08:00 +10°C° 0 mm 7 mps 752 mmHg 73%
    09:00 +11°C° 0 mm 7 mps 752 mmHg 67%
    10:00 +12°C° 0 mm 7 mps 752 mmHg 64%
    11:00 +14°C° 0 mm 7 mps 752 mmHg 60%
    12:00 +15°C° 0 mm 7 mps 752 mmHg 57%
    13:00 +15°C° 0.3 mm 7 mps 752 mmHg 60%
    14:00 +15°C° 0.3 mm 7 mps 752 mmHg 62%
    15:00 +15°C° 0.3 mm 7 mps 752 mmHg 65%
    16:00 +14°C° 0.1 mm 6 mps 753 mmHg 69%
    17:00 +11°C° 0.1 mm 6 mps 753 mmHg 73%
    18:00 +10°C° 0.1 mm 5 mps 753 mmHg 77%
    19:00 +9°C° 0 mm 5 mps 754 mmHg 80%
    20:00 +8°C° 0 mm 4 mps 754 mmHg 83%
    21:00 +6°C° 0 mm 4 mps 754 mmHg 86%
    22:00 +6°C° 0 mm 4 mps 754 mmHg 84%
    23:00 +7°C° 0 mm 5 mps 754 mmHg 82%

    27 April, Saturday

    Time Temperature Precipitation Wind Pressure Humidity
    00:00 +7°C° 0 mm 5 mps 754 mmHg 79%
    01:00 +7°C° 0.1 mm 6 mps 753 mmHg 81%
    02:00 +6°C° 0.1 mm 7 mps 752 mmHg 82%
    03:00 +6°C° 0.1 mm 8 mps 751 mmHg 83%
    04:00 +6°C° 0.4 mm 8 mps 750 mmHg 84%
    05:00 +6°C° 0.4 mm 8 mps 749 mmHg 84%
    06:00 +6°C° 0.4 mm 8 mps 748 mmHg 84%
    07:00 +6°C° 0.4 mm 8 mps 748 mmHg 84%
    08:00 +7°C° 0.4 mm 8 mps 748 mmHg 84%
    09:00 +7°C° 0.4 mm 8 mps 748 mmHg 84%
    10:00 +7°C° 0.7 mm 8 mps 748 mmHg 84%
    11:00 +7°C° 0.7 mm 8 mps 748 mmHg 84%
    12:00 +8°C° 0.7 mm 9 mps 749 mmHg 84%
    13:00 +8°C° 0.6 mm 9 mps 750 mmHg 80%
    14:00 +10°C° 0.6 mm 9 mps 750 mmHg 76%
    15:00 +11°C° 0.6 mm 9 mps 751 mmHg 72%
    16:00 +10°C° 0.2 mm 9 mps 752 mmHg 75%
    17:00 +10°C° 0.2 mm 8 mps 753 mmHg 78%
    18:00 +9°C° 0.2 mm 7 mps 754 mmHg 81%
    19:00 +8°C° 0.1 mm 7 mps 756 mmHg 83%
    20:00 +8°C° 0.1 mm 7 mps 757 mmHg 86%
    21:00 +8°C° 0.1 mm 6 mps 758 mmHg 88%
    22:00 +7°C° 0 mm 6 mps 759 mmHg 89%
    23:00 +7°C° 0 mm 5 mps 759 mmHg 90%

    28 April, Sunday

    Time Temperature Precipitation Wind Pressure Humidity
    00:00 +6°C° 0 mm 4 mps 760 mmHg 90%
    01:00 +6°C° 0 mm 4 mps 760 mmHg 91%
    02:00 +6°C° 0 mm 4 mps 760 mmHg 92%
    03:00 +5°C° 0 mm 4 mps 761 mmHg 93%
    04:00 +6°C° 0 mm 4 mps 761 mmHg 92%
    05:00 +6°C° 0 mm 4 mps 761 mmHg 91%
    06:00 +6°C° 0 mm 5 mps 761 mmHg 90%
    07:00 +8°C° 0 mm 5 mps 761 mmHg 84%
    08:00 +9°C° 0 mm 5 mps 761 mmHg 78%
    09:00 +10°C° 0 mm 5 mps 762 mmHg 72%
    10:00 +12°C° 0.1 mm 5 mps 761 mmHg 69%
    11:00 +13°C° 0.1 mm 5 mps 761 mmHg 66%
    12:00 +14°C° 0.1 mm 5 mps 761 mmHg 62%
    13:00 +14°C° 0 mm 5 mps 761 mmHg 62%
    14:00 +14°C° 0 mm 5 mps 761 mmHg 62%
    15:00 +14°C° 0 mm 5 mps 761 mmHg 62%
    16:00 +13°C° 0 mm 4 mps 761 mmHg 65%
    17:00 +12°C° 0 mm 3 mps 761 mmHg 67%
    18:00 +11°C° 0 mm 3 mps 761 mmHg 70%
    19:00 +10°C° 0 mm 2 mps 761 mmHg 74%
    20:00 +8°C° 0 mm 2 mps 761 mmHg 78%
    21:00 +8°C° 0 mm 1 mps 761 mmHg 82%
    22:00 +8°C° 0 mm 1 mps 761 mmHg 84%
    23:00 +7°C° 0 mm 1 mps 761 mmHg 85%

    29 April, Monday

    Time Temperature Precipitation Wind Pressure Humidity
    00:00 +7°C° 0 mm 1 mps 761 mmHg 87%
    01:00 +7°C° 0 mm 1 mps 761 mmHg 87%
    02:00 +7°C° 0 mm 1 mps 760 mmHg 87%
    03:00 +6°C° 0 mm 2 mps 760 mmHg 86%
    04:00 +7°C° 0 mm 2 mps 760 mmHg 86%
    05:00 +7°C° 0 mm 2 mps 760 mmHg 85%
    06:00 +8°C° 0 mm 2 mps 760 mmHg 84%
    07:00 +9°C° 0 mm 2 mps 760 mmHg 81%
    08:00 +12°C° 0 mm 2 mps 759 mmHg 78%
    09:00 +13°C° 0 mm 2 mps 759 mmHg 74%
    10:00 +13°C° 0.2 mm 2 mps 759 mmHg 74%
    11:00 +14°C° 0.2 mm 1 mps 759 mmHg 74%
    12:00 +14°C° 0.2 mm 1 mps 758 mmHg 73%
    13:00 +14°C° 0.1 mm 1 mps 758 mmHg 70%
    14:00 +15°C° 0.1 mm 1 mps 757 mmHg 68%
    15:00 +15°C° 0.1 mm 0 mps 757 mmHg 65%
    16:00 +15°C° 0.1 mm 1 mps 757 mmHg 68%
    17:00 +15°C° 0.1 mm 1 mps 757 mmHg 72%
    18:00 +14°C° 0.1 mm 1 mps 756 mmHg 75%
    19:00 +13°C° 0 mm 1 mps 756 mmHg 78%
    20:00 +12°C° 0 mm 1 mps 756 mmHg 81%
    21:00 +10°C° 0 mm 1 mps 757 mmHg 84%
    22:00 +10°C° 0 mm 1 mps 756 mmHg 85%
    23:00 +9°C° 0 mm 1 mps 756 mmHg 86%
    Show more